Orbital elements:
2015 BE511 Earth MOID = 0.0007 AU
Epoch 2014 Dec. 9.0 TT = JDT 2457000.5 MPC
M 353.65535 (2000.0) P Q
n 0.25096830 Peri. 177.36671 -0.12536929 -0.99210813
a 2.4891829 Node 279.83537 +0.91020613 -0.11421629
e 0.6161031 Incl. 0.11642 +0.39472440 -0.05173110
P 3.93 H 28.8 G 0.15 U 5